Presure
142 161 157 150 163 161 173 148 165 164 150 143 179 167 178 170 177 164 189 174 168 151 175 177 189 191 192 207 202 207 208 185 207 214 208 218 220 222 236 243 266 410 453 414 388 301 325 312 322 289 252 247 249 238
189 146 170 161 186 175 180 171 171 167 201 151 161 168 160 183 162 164 173 183 164 153 159 174 181 191 199 195 203 197 211 200 205 204 208 208 215 226 235 250 246 282 420 392 437 370 296 308 309 316 262 285 268 258
153 174 144 154 167 163 201 174 191 149 174 162 152 165 168 176 146 162 162 167 182 145 159 179 170 183 196 192 202 191 192 213 196 145 200 210 205 212 219 228 247 237 333 353 409 410 400 360 287 303 307 316 314 271
165 150 179 172 180 175 168 149 194 168 142 171 156 170 159 165 172 164 188 154 172 149 174 190 174 187 185 188 208 191 189 207 212 208 205 209 199 185 217 225 239 224 230 306 330 329 396 392 411 362 283 293 310 307
183 180 184 172 181 158 176 152 185 189 188 172 164 141 192 166 200 173 137 184 191 153 174 186 193 179 185 199 189 192 187 201 197 190 202 217 206 216 214 220 144 238 231 237 314 330 320 359 386 377 394 370 312 287
173 189 190 186 188 183 166 181 196 195 156 198 140 176 160 130 170 166 150 170 185 154 161 177 199 180 188 191 178 188 195 198 192 205 196 211 198 214 214 216 229 243 249 228 138 205 334 342 312 336 377 364 372 389
185 192 166 163 188 183 189 162 205 167 177 173 175 157 183 169 167 147 189 165 154 192 162 176 190 199 189 197 197 195 181 200 191 208 198 212 220 210 212 217 221 229 240 247 254 328 332 331 338 319 333 324 375 359
193 185 175 191 173 191 166 183 189 177 165 168 176 166 169 162 162 176 201 185 162 190 192 195 194 214 190 198 189 199 191 201 202 203 194 212 221 208 210 206 219 225 238 237 256 326 330 335 329 330 311 302 329 315
173 182 178 183 188 184 190 180 180 191 179 171 194 187 161 141 160 169 188 167 161 174 193 180 193 197 188 201 179 200 194 206 207 201 205 206 214 207 216 214 207 223 232 227 233 321 326 332 335 333 328 320 308 335
184 192 177 178 181 185 188 159 159 179 179 188 184 188 162 168 145 195 185 162 169 170 192 178 198 190 199 200 173 197 191 194 203 209 201 201 202 219 219 227 222 222 243 228 242 319 322 339 341 335 331 329 322 301
186 182 184 190 191 189 188 187 179 189 190 190 178 168 168 179 153 191 176 189 172 184 185 192 192 198 202 199 163 202 191 197 204 180 205 205 194 208 213 215 210 224 239 233 231 322 325 341 340 335 327 323 326 326
194 192 191 171 186 188 193 186 191 192 180 192 170 181 161 188 199 191 169 164 186 191 177 192 198 187 199 187 207 204 195 191 202 190 210 215 199 201 219 228 212 224 233 241 236 326 326 327 326 326 321 320 325 325
222 208 215 208 207 219 207 173 177 205 199 202 203 200 190 189 176 200 196 198 200 189 179 197 198 194 203 195 209 200 193 195 178 203 202 214 199 201 215 228 209 222 234 244 235 329 322 322 318 322 326 331 333 338
217 215 227 223 194 206 248 243 254 209 227 186 178 196 188 208 207 205 179 170 190 182 197 196 203 188 205 200 215 199 202 212 203 224 198 216 220 207 215 221 220 234 233 251 246 315 322 321 324 328 340 361 359 363
236 259 253 194 217 227 208 222 214 200 197 219 238 225 195 214 205 204 191 195 194 192 198 195 204 204 188 205 211 207 212 205 216 202 203 217 230 211 222 233 229 233 234 243 307 328 329 335 342 376 366 362 361 365
236 258 212 261 235 227 231 235 222 242 242 231 218 192 176 209 215 208 200 202 202 204 208 210 212 199 213 206 182 205 210 184 208 208 218 228 217 220 227 232 247 235 253 249 340 346 352 370 387 375 368 370 369 355
267 282 254 246 262 264 259 257 253 202 248 248 209 241 229 239 210 215 203 203 202 193 204 206 199 216 206 196 208 199 204 228 205 220 219 227 217 232 234 242 233 245 258 344 358 371 388 387 382 379 372 363 340 347
311 243 294 260 258 260 256 255 224 261 257 262 261 216 195 209 212 231 218 202 194 202 202 208 202 207 203 206 206 212 209 207 221 218 232 215 232 237 234 239 257 250 345 365 387 406 400 392 388 375 367 348 353 355
401 241 374 381 278 406 409 395 375 357 331 333 308 308 228 198 214 228 224 211 209 211 211 209 205 198 200 210 214 199 211 211 220 225 219 235 238 235 236 249 249 360 373 390 403 389 375 362 413 390 341 338 374 364
355 370 351 367 356 356 391 343 370 204 340 358 362 348 290 211 218 226 225 227 208 210 210 201 196 210 214 221 206 212 214 225 222 219 234 232 241 233 252 255 373 384 392 397 386 362 345 343 329 319 309 305 302 297
367 348 354 368 379 332 408 376 347 336 333 320 304 290 287 218 220 240 222 229 228 221 200 214 217 222 206 217 208 225 228 220 225 245 228 241 226 256 308 391 391 394 395 392 374 351 342 339 332 323 319 313 312 311
333 354 382 383 340 344 333 303 284 278 274 283 281 296 222 228 232 222 228 232 223 228 227 216 214 221 215 231 230 222 220 236 238 226 246 228 252 321 405 397 389 356 356 351 347 344 341 335 332 331 327 320 320 319
311 302 303 300 295 290 284 282 272 273 276 268 244 223 228 228 224 224 227 236 238 233 228 227 229 229 226 223 220 233 238 231 239 241 241 257 339 401 374 329 321 334 369 363 355 352 346 340 335 333 336 337 333 330
294 288 286 284 280 287 276 270 275 272 242 235 231 231 231 231 233 237 242 243 235 232 213 218 224 231 236 237 233 230 246 246 230 257 256 402 367 337 326 319 327 402 401 396 389 376 363 354 348 347 347 354 361 355
287 291 277 271 264 269 267 239 269 272 272 272 259 265 244 244 240 245 245 243 243 237 234 218 231 235 235 247 248 246 233 262 258 425 361 343 331 322 317 318 434 428 422 415 407 403 396 397 397 379 360 347 334 330
256 258 267 275 250 226 225 225 224 241 283 275 270 248 260 257 256 251 247 246 247 247 247 246 242 244 247 242 252 263 284 480 481 341 330 324 319 316 312 476 461 446 432 420 409 401 393 386 380 374 370 364 357 351
264 262 261 262 259 255 258 253 256 258 256 256 255 258 256 258 262 265 267 268 267 267 260 254 259 262 264 268 531 578 439 337 329 323 320 314 308 321 319 496 484 463 449 436 424 414 406 398 391 385 380 374 371 364
283 283 283 283 284 281 277 279 278 278 278 277 274 273 271 270 271 267 264 264 267 274 266 283 288 410 421 404 350 331 325 320 313 309 308 303 297 317 412 505 492 479 466 454 441 430 419 411 401 395 387 381 375 370
277 277 274 274 276 276 274 271 268 270 267 266 268 275 279 283 293 321 323 320 313 410 282 409 389 358 332 324 320 314 308 304 303 306 303 298 296 311 323 513 505 492 479 471 459 446 436 426 413 407 398 392 388 382
285 282 282 283 284 283 286 288 291 302 305 317 319 317 308 295 324 321 417 409 395 376 349 329 321 318 312 307 302 328 371 379 383 377 365 347 304 305 320 535 511 510 495 482 471 460 451 440 428 420 411 404 399 391
303 302 301 299 297 295 293 290 288 290 318 320 362 398 406 399 390 367 344 328 321 316 311 308 313 341 357 353 348 345 339 339 348 359 373 354 329 306 313 391 538 525 512 500 487 474 461 451 439 431 423 414 411 404
328 325 325 325 322 321 366 414 411 411 400 386 363 340 326 318 311 309 308 366 436 443 442 441 440 434 432 426 418 409 395 353 329 341 349 370 356 316 304 313 359 538 526 516 501 487 472 464 452 443 434 427 418 414
361 397 389 410 401 381 362 338 323 314 309 306 307 333 432 434 436 445 445 444 442 443 442 439 431 429 451 443 436 425 413 402 391 345 335 340 355 362 322 301 309 325 535 523 518 506 496 482 470 459 449 441 433 427
Wind_Speed
52 55 58 56 58 57 57 55 59 61 57 51 67 68 58 63 66 61 73 57 52 46 67 69 73 72 71 82 79 82 71 51 74 82 79 91 89 67 75 77 103 15 11 46 52 60 65 73 73 93 92 91 103 100
54 56 59 58 56 56 56 58 54 59 64 57 61 69 51 55 61 64 70 73 45 42 52 67 73 75 79 70 81 72 88 61 71 65 75 75 83 96 91 101 85 69 17 24 31 46 65 69 77 78 90 104 106 110
67 62 56 64 58 60 61 54 66 51 56 65 58 70 74 68 43 64 57 63 74 39 47 63 64 72 79 72 81 72 62 85 55 25 56 81 72 66 79 92 93 66 49 20 23 29 50 63 75 77 84 85 89 112
66 64 74 69 72 57 61 60 69 57 47 60 49 67 67 62 65 67 81 38 66 44 63 76 61 73 72 70 86 71 64 91 83 73 70 78 54 62 84 85 97 43 52 33 24 25 32 38 42 76 83 85 87 94
85 76 87 74 73 70 61 64 70 69 55 68 57 31 79 70 80 62 43 81 83 41 64 76 77 69 73 83 73 74 72 83 68 55 69 95 79 100 82 93 30 81 68 79 31 29 30 32 39 45 46 76 90 93
70 100 99 95 88 85 71 74 92 87 73 87 44 62 65 38 60 53 47 75 75 39 45 70 85 68 74 82 64 69 80 81 66 83 59 91 53 98 93 91 103 104 115 53 36 33 33 35 35 39 46 51 54 53
101 107 72 69 100 89 91 78 88 72 58 64 64 70 80 73 67 33 79 69 43 88 48 65 78 89 77 87 85 82 64 87 69 93 73 99 99 89 93 98 101 100 108 103 111 35 34 35 39 41 43 47 54 59
113 103 87 107 73 104 71 89 96 66 70 71 62 72 70 74 50 76 98 87 59 91 93 89 89 103 82 89 74 88 78 94 97 90 75 103 103 79 86 72 102 110 111 97 121 36 38 41 40 43 46 48 51 56
85 91 84 102 107 98 103 81 83 102 67 73 106 98 74 48 55 63 81 66 59 71 101 73 91 95 76 97 58 95 82 96 100 88 101 97 102 82 103 92 73 113 107 82 79 41 40 43 48 49 48 50 52 55
107 119 85 82 89 96 106 72 71 85 76 102 85 106 75 82 41 113 81 65 72 65 104 68 105 90 99 96 53 90 73 79 98 102 91 96 91 116 106 112 103 106 119 89 120 50 46 45 50 52 52 53 53 57
113 104 112 119 120 115 113 112 88 116 111 109 92 77 77 96 57 110 69 105 76 96 89 101 100 101 108 96 45 104 76 84 99 59 97 101 77 105 113 103 82 113 122 98 80 56 53 50 49 51 51 54 55 57
128 128 130 95 123 121 124 104 119 116 80 120 80 97 56 107 118 110 77 80 101 110 60 106 108 78 102 68 110 107 86 71 96 74 104 109 85 86 120 122 95 119 121 114 110 60 58 56 54 55 56 58 60 61
144 133 141 136 137 144 136 84 93 140 135 133 133 123 103 106 81 117 113 119 123 102 67 115 113 96 114 90 117 104 81 81 55 94 92 107 76 82 112 120 86 109 121 123 113 64 64 62 62 62 64 66 68 69
124 123 125 129 109 124 126 118 116 98 114 93 85 108 93 115 110 109 81 73 104 69 114 115 120 68 115 99 113 103 96 116 102 119 82 111 118 91 110 116 101 124 126 132 137 70 69 68 68 69 68 67 68 68
126 135 133 90 108 120 105 123 110 99 103 114 114 108 87 95 103 104 96 105 104 105 118 107 117 111 66 109 118 110 121 108 124 89 90 113 124 96 118 128 114 122 113 129 83 68 68 69 69 61 60 61 62 62
127 131 93 132 128 128 133 135 118 128 127 118 101 94 85 92 96 106 105 116 113 123 125 124 119 96 121 111 67 104 114 59 96 103 119 127 108 114 119 121 133 122 133 131 73 71 67 64 55 54 56 55 53 52
130 130 122 123 127 134 140 143 142 73 134 121 93 106 90 101 101 94 102 112 110 88 115 113 91 124 110 84 111 89 101 121 97 125 123 131 110 130 130 134 118 136 148 77 72 70 59 55 52 52 51 49 50 51
116 81 114 129 129 135 137 137 107 138 135 127 124 104 98 96 94 97 105 104 87 105 100 118 102 113 104 105 104 123 105 97 123 119 137 100 131 133 124 130 146 136 81 73 65 59 55 53 51 50 49 49 49 50
53 66 54 59 70 64 71 79 82 86 98 87 114 115 109 101 99 96 102 107 109 115 118 118 107 86 91 118 124 77 110 107 122 133 115 136 135 128 127 139 135 81 73 63 55 53 50 49 50 49 50 50 49 48
51 47 56 54 61 65 70 67 70 68 71 59 55 56 76 102 100 98 98 107 99 109 113 92 79 122 126 129 94 118 115 127 123 116 140 128 132 122 146 147 80 69 61 55 51 52 51 50 50 50 52 52 51 51
43 49 50 48 50 44 52 44 37 36 35 39 53 70 85 95 91 100 96 105 113 117 86 118 121 125 87 121 101 131 133 114 130 140 119 133 110 147 108 72 65 61 57 54 52 54 53 53 51 51 51 51 51 50
29 36 42 41 33 30 24 24 34 38 44 46 58 59 86 84 88 87 97 102 104 108 112 111 108 117 110 129 128 114 112 133 128 115 134 107 143 113 66 64 64 68 65 63 61 59 57 55 54 54 53 54 52 51
12 15 16 20 23 24 24 27 35 42 50 62 73 78 80 81 84 90 96 99 103 107 111 112 118 119 117 110 105 128 130 122 128 125 123 142 102 66 71 75 75 73 67 65 64 62 61 60 59 58 58 57 56 54
18 18 18 18 20 21 29 38 44 51 63 71 75 77 78 83 88 91 94 99 101 102 77 91 106 115 122 123 116 112 133 128 100 138 136 71 70 72 74 75 75 72 70 68 65 64 64 63 62 62 60 59 58 57
14 17 22 25 34 35 41 55 52 56 60 64 70 74 81 84 87 92 97 102 104 107 106 81 104 115 117 130 130 125 105 136 135 69 68 70 71 72 74 75 67 65 63 62 61 60 60 60 60 58 56 55 54 52
36 33 31 31 43 42 46 50 52 52 56 62 67 77 79 84 89 94 98 102 105 108 111 113 110 113 121 115 126 129 124 62 61 66 68 69 69 71 73 55 56 56 56 56 56 56 55 55 55 54 54 54 53 52
35 38 42 45 50 55 56 62 64 66 69 72 76 80 84 88 92 97 100 103 107 112 115 116 121 123 123 124 50 39 53 63 64 65 65 66 67 68 69 45 45 47 48 49 49 49 49 50 50 49 49 49 49 48
43 46 48 50 52 55 57 60 62 65 69 72 76 80 84 88 92 96 100 104 107 109 114 105 96 55 49 50 59 62 63 64 64 65 64 64 65 65 51 38 39 40 41 42 43 44 44 45 45 45 45 45 45 44
45 48 50 52 55 57 60 63 67 70 73 76 81 85 87 87 87 82 81 81 80 49 78 46 49 54 59 61 63 64 65 66 65 65 63 63 62 63 61 34 34 35 36 37 37 39 40 40 40 41 41 41 41 41
49 51 53 56 59 60 64 67 69 69 71 69 69 70 72 72 65 58 42 44 46 49 53 57 59 61 62 64 65 61 53 51 50 50 51 53 57 57 56 29 30 30 31 32 33 33 34 34 35 36 37 37 38 38
42 44 46 48 50 52 53 55 57 60 60 61 51 41 38 40 42 46 50 54 56 58 60 62 64 60 57 56 56 55 54 55 53 49 46 47 50 52 50 41 26 26 27 27 29 29 30 31 32 32 33 34 34 34
37 40 42 43 46 48 38 26 27 27 29 33 38 43 46 49 52 54 55 51 41 40 41 41 42 42 42 42 42 43 44 50 51 48 45 43 43 46 46 45 42 24 24 25 26 27 28 29 29 30 30 32 31 32
24 19 20 15 18 22 26 30 34 37 40 42 45 43 29 30 31 31 32 33 35 36 37 37 37 37 36 38 38 38 38 39 39 45 45 43 41 39 42 41 40 40 21 22 23 25 26 27 28 29 29 30 31 31
Wind_Direction
297 295 299 304 300 304 305 310 309 312 321 316 318 324 331 330 331 333 341 341 344 336 352 351 355 356 355 0 1 3 2 6 12 16 17 14 14 12 13 16 13 281 282 239 244 236 231 228 227 228 232 232 230 231
299 294 293 303 302 302 300 301 310 306 319 312 319 319 331 332 330 332 333 337 338 334 342 348 350 353 354 355 1 0 359 0 5 10 13 14 10 10 8 10 12 7 275 264 251 245 236 235 233 231 234 232 232 233
286 292 291 296 294 300 305 299 302 307 302 309 317 315 319 324 323 328 327 332 332 326 336 345 343 347 351 353 354 357 352 356 351 315 6 8 6 9 7 2 6 13 0 305 262 255 248 249 238 238 237 236 236 234
283 284 294 296 297 293 288 298 310 305 304 308 308 309 311 316 323 325 325 328 327 320 335 339 342 344 346 348 350 348 345 354 353 358 360 3 358 353 1 0 1 350 358 335 304 283 256 252 252 246 239 240 240 240
296 294 298 285 294 282 299 287 304 309 299 301 300 291 312 308 317 322 321 326 325 315 330 332 337 340 342 344 343 348 347 350 345 343 354 356 357 356 360 359 273 352 353 353 322 298 284 263 256 251 249 244 243 240
284 298 297 299 300 294 276 293 303 308 290 315 301 304 300 304 306 312 312 316 325 308 321 326 332 335 337 341 329 339 346 346 340 346 341 353 351 352 354 355 354 354 355 346 267 280 292 280 268 260 256 253 249 249
293 294 273 275 297 296 298 278 294 281 287 292 289 295 305 296 301 296 320 307 310 319 314 320 328 330 333 337 338 340 327 342 337 343 337 348 349 350 350 351 349 349 348 348 346 309 295 286 279 270 264 259 256 256
291 292 284 292 284 294 274 295 298 283 276 292 287 286 292 292 295 309 318 315 306 317 320 321 323 321 330 333 335 336 335 340 338 339 334 341 345 346 345 342 346 346 346 345 347 309 298 289 281 277 267 262 263 259
278 286 280 289 291 290 292 288 286 296 283 284 301 301 287 289 290 299 314 303 301 305 317 315 320 321 328 326 322 332 332 334 336 338 338 338 341 341 343 341 338 344 342 337 338 310 301 287 282 278 272 268 262 265
283 285 276 276 282 285 290 278 279 287 283 295 290 293 283 289 277 303 309 298 300 299 313 310 316 318 323 323 312 329 328 331 334 333 337 336 336 337 341 339 340 342 338 337 340 313 307 290 282 278 275 272 266 259
281 279 282 284 284 284 285 285 275 286 288 289 286 276 282 291 284 300 301 306 297 304 305 309 312 313 317 321 298 324 324 328 331 314 334 332 327 335 337 335 332 340 338 335 329 312 305 294 287 280 276 273 270 266
272 273 275 276 276 276 278 277 279 280 271 285 273 280 283 290 293 299 300 299 299 301 299 306 307 310 313 318 315 319 324 323 327 321 331 329 328 330 333 331 332 337 334 334 337 309 304 298 294 288 284 280 276 273
269 270 271 272 273 270 269 266 270 277 278 279 280 281 282 285 291 294 294 295 294 295 298 302 304 309 308 315 312 319 320 321 304 325 328 327 323 326 333 330 325 333 331 331 336 307 305 301 298 292 287 283 280 277
268 268 269 270 267 272 271 269 271 271 269 274 273 276 280 287 289 289 285 284 289 293 297 298 299 306 304 312 309 314 316 318 319 319 322 323 324 324 329 327 325 329 327 329 326 310 305 302 298 294 288 281 280 278
268 267 267 272 272 272 273 271 273 271 268 269 271 273 279 281 282 285 284 284 287 291 293 295 297 300 304 307 307 311 313 316 316 320 320 321 322 325 324 323 325 326 323 329 315 305 302 298 296 286 283 280 278 277
265 264 271 264 267 269 271 272 273 272 271 273 272 272 277 275 280 279 280 281 283 287 289 290 293 300 299 305 298 310 311 304 315 320 318 318 320 323 323 321 324 325 323 325 307 303 300 295 287 283 281 280 280 278
260 260 263 263 262 263 264 265 268 278 270 273 277 277 273 274 268 271 275 277 281 285 287 290 295 293 301 306 306 310 311 307 316 313 315 314 320 319 319 320 319 320 321 309 305 301 295 291 287 282 281 279 282 281
254 261 259 260 260 261 261 264 267 266 269 271 271 269 266 265 267 271 268 275 280 282 286 286 293 295 298 303 305 304 306 312 310 312 311 316 317 315 317 319 319 320 309 305 300 294 292 290 286 284 281 283 282 279
238 259 239 242 261 240 240 245 248 251 258 253 262 266 268 268 263 268 266 269 275 278 280 284 291 298 301 298 299 307 308 309 308 309 314 313 314 315 316 315 318 308 305 302 297 295 295 294 284 284 286 286 280 276
232 224 239 239 243 248 241 252 246 280 256 265 262 260 256 257 259 265 267 269 276 276 280 288 294 288 290 292 303 300 304 303 307 311 309 312 312 313 313 315 305 304 301 297 294 294 296 294 292 289 287 286 286 285
212 227 234 243 244 259 243 242 251 255 250 245 252 256 257 257 259 265 267 270 271 272 286 280 282 284 298 293 301 297 298 306 304 303 311 310 310 311 310 303 301 299 297 293 290 293 294 292 291 289 287 286 285 284
243 243 242 243 241 240 237 232 243 252 254 252 257 260 261 258 263 267 271 272 274 275 276 280 285 285 292 290 292 299 303 301 302 309 307 308 309 308 298 297 297 300 298 298 296 294 291 290 289 287 285 283 282 281
200 200 204 207 212 223 230 240 249 251 255 255 257 270 264 265 269 271 273 274 275 275 277 280 281 284 288 293 299 296 296 302 303 305 305 306 305 298 299 302 303 301 293 291 290 288 286 286 286 286 285 283 281 280
214 226 237 244 250 246 252 255 254 257 262 260 266 268 268 268 270 271 272 273 275 279 290 289 287 287 287 290 295 300 296 299 303 303 306 299 300 301 302 303 303 291 289 287 284 281 280 280 280 281 281 280 278 277
250 250 258 258 256 256 256 263 258 259 260 263 266 265 269 271 273 272 273 275 277 279 282 291 290 289 291 289 292 296 300 299 301 299 299 301 302 303 304 305 289 287 286 284 283 281 280 279 279 278 277 276 276 277
254 257 257 254 263 277 279 280 281 277 266 267 269 271 270 271 272 273 275 277 279 280 282 285 287 290 291 296 296 297 297 295 296 301 302 303 305 306 307 287 286 284 283 281 280 279 279 278 278 278 277 276 276 277
259 259 263 264 267 268 269 271 270 270 271 271 272 272 274 275 276 277 278 279 280 281 284 288 290 292 293 294 298 299 298 299 300 301 303 304 305 307 307 287 284 283 281 280 278 277 277 276 276 276 276 277 277 277
253 255 256 259 260 263 265 266 267 268 269 271 274 275 277 279 279 281 284 285 287 288 290 291 292 295 296 297 295 296 297 299 299 300 302 304 306 308 303 287 285 282 281 279 277 276 275 275 275 275 275 275 276 276
264 266 268 269 270 270 270 272 273 273 276 279 279 280 280 281 281 283 285 286 288 293 292 293 292 292 294 295 296 296 296 297 298 299 300 302 305 309 312 288 284 282 281 278 276 275 275 274 274 274 273 274 274 275
264 265 266 267 268 270 270 271 273 274 275 277 278 279 281 284 286 291 291 291 290 290 290 290 291 293 294 294 295 297 300 303 304 303 302 301 303 307 313 288 288 282 280 278 276 275 273 273 272 271 271 272 272 273
268 268 269 271 272 274 276 277 279 280 280 281 284 288 290 290 289 288 288 290 291 292 293 294 295 296 296 296 297 298 300 301 302 304 307 304 303 306 313 318 289 286 282 278 276 273 271 270 269 268 267 269 269 270
271 271 273 274 276 278 281 289 290 291 291 289 288 288 289 290 291 291 292 295 300 301 301 300 299 298 297 296 296 297 298 296 298 301 305 311 308 305 311 318 327 289 286 280 277 274 272 269 268 267 267 266 267 267
280 287 287 296 294 290 288 287 288 289 290 291 291 294 307 308 310 315 314 314 313 312 310 309 307 305 303 302 300 300 299 300 300 299 302 306 311 312 308 314 321 329 295 289 281 275 271 270 267 265 266 265 265 266